• In Portugal
  • List of Countries
  • For 7 days
  • Water Temperature
  • Satellite Maps
  • Weather Map
  • Weather Widgets
  • user-avatar
    Login

    Hourly Weather Ndjbele

    Today, 20 August, Monday

    Time Temperature Precipitation Wind Pressure Humidity
    00:00 +22°C° 7.6 mm 1 mps 717 mmHg 99%
    01:00 +22°C° 7.6 mm 1 mps 717 mmHg 99%
    02:00 +22°C° 7.6 mm 1 mps 717 mmHg 99%
    03:00 +22°C° 7.5 mm 1 mps 717 mmHg 99%
    04:00 +22°C° 7.5 mm 1 mps 717 mmHg 99%
    05:00 +22°C° 0 mm 1 mps 717 mmHg 99%
    06:00 +22°C° 4.2 mm 1 mps 718 mmHg 99%
    07:00 +22°C° 4.2 mm 1 mps 718 mmHg 98%
    08:00 +22°C° 4.2 mm 1 mps 718 mmHg 98%
    09:00 +23°C° 2.6 mm 1 mps 718 mmHg 98%
    10:00 +23°C° 2.6 mm 1 mps 718 mmHg 98%
    11:00 +23°C° 2.6 mm 1 mps 718 mmHg 98%
    12:00 +23°C° 1.5 mm 1 mps 717 mmHg 98%
    13:00 +23°C° 1.5 mm 1 mps 717 mmHg 98%
    14:00 +23°C° 1.5 mm 1 mps 716 mmHg 98%
    15:00 +23°C° 1.5 mm 1 mps 716 mmHg 98%
    16:00 +23°C° 1.5 mm 1 mps 717 mmHg 98%
    17:00 +23°C° 1.5 mm 2 mps 717 mmHg 98%
    18:00 +22°C° 0.5 mm 1 mps 717 mmHg 98%
    19:00 +22°C° 0.5 mm 1 mps 717 mmHg 98%
    20:00 +22°C° 0.5 mm 1 mps 718 mmHg 99%
    21:00 +22°C° 0.1 mm 1 mps 718 mmHg 99%
    22:00 +22°C° 0.1 mm 1 mps 718 mmHg 99%
    23:00 +22°C° 0.1 mm 1 mps 719 mmHg 99%

    Tomorrow, 21 August, Tuesday

    Time Temperature Precipitation Wind Pressure Humidity
    00:00 +22°C° 0.4 mm 1 mps 718 mmHg 99%
    01:00 +22°C° 0.4 mm 1 mps 718 mmHg 99%
    02:00 +22°C° 0.4 mm 1 mps 717 mmHg 99%
    03:00 +22°C° 1.3 mm 1 mps 717 mmHg 99%
    04:00 +22°C° 1.3 mm 1 mps 717 mmHg 99%
    05:00 +22°C° 1.3 mm 1 mps 717 mmHg 99%
    06:00 +22°C° 1.4 mm 1 mps 718 mmHg 99%
    07:00 +22°C° 1.4 mm 1 mps 718 mmHg 98%
    08:00 +22°C° 1.4 mm 1 mps 718 mmHg 98%
    09:00 +23°C° 1.1 mm 1 mps 719 mmHg 98%
    10:00 +23°C° 1.1 mm 1 mps 719 mmHg 97%
    11:00 +24°C° 1.1 mm 1 mps 719 mmHg 97%
    12:00 +24°C° 1 mm 1 mps 718 mmHg 96%
    13:00 +24°C° 1 mm 1 mps 718 mmHg 96%
    14:00 +24°C° 1 mm 1 mps 717 mmHg 96%
    15:00 +24°C° 0.9 mm 1 mps 717 mmHg 97%
    16:00 +23°C° 0.9 mm 1 mps 717 mmHg 97%
    17:00 +23°C° 0.9 mm 1 mps 716 mmHg 98%
    18:00 +23°C° 0.4 mm 1 mps 717 mmHg 98%
    19:00 +22°C° 0.4 mm 1 mps 717 mmHg 99%
    20:00 +22°C° 0.4 mm 1 mps 718 mmHg 99%
    21:00 +22°C° 0.2 mm 1 mps 718 mmHg 99%
    22:00 +22°C° 0.2 mm 1 mps 718 mmHg 99%
    23:00 +22°C° 0.2 mm 1 mps 718 mmHg 99%

    Day after tomorrow, 22 August, Wednesday

    Time Temperature Precipitation Wind Pressure Humidity
    00:00 +22°C° 0.2 mm 1 mps 718 mmHg 99%
    01:00 +22°C° 0.2 mm 1 mps 717 mmHg 99%
    02:00 +22°C° 0.2 mm 1 mps 717 mmHg 99%
    03:00 +22°C° 0.1 mm 1 mps 717 mmHg 99%
    04:00 +22°C° 0.1 mm 1 mps 717 mmHg 99%
    05:00 +22°C° 0.1 mm 1 mps 717 mmHg 99%
    06:00 +22°C° 0 mm 1 mps 717 mmHg 98%
    07:00 +23°C° 0 mm 1 mps 718 mmHg 96%
    08:00 +23°C° 0 mm 1 mps 718 mmHg 95%
    09:00 +24°C° 0.3 mm 1 mps 718 mmHg 91%
    10:00 +25°C° 0.3 mm 1 mps 718 mmHg 88%
    11:00 +26°C° 0.3 mm 1 mps 718 mmHg 84%
    12:00 +26°C° 1 mm 1 mps 718 mmHg 86%
    13:00 +27°C° 1 mm 1 mps 717 mmHg 89%
    14:00 +27°C° 1 mm 1 mps 716 mmHg 91%
    15:00 +26°C° 1.3 mm 1 mps 716 mmHg 93%
    16:00 +25°C° 1.3 mm 1 mps 716 mmHg 94%
    17:00 +25°C° 1.3 mm 1 mps 716 mmHg 96%
    18:00 +24°C° 2.1 mm 1 mps 716 mmHg 97%
    19:00 +23°C° 2.1 mm 1 mps 717 mmHg 97%
    20:00 +23°C° 2.1 mm 2 mps 717 mmHg 98%
    21:00 +23°C° 0.9 mm 1 mps 718 mmHg 98%
    22:00 +22°C° 0.9 mm 1 mps 718 mmHg 99%
    23:00 +22°C° 0.9 mm 1 mps 718 mmHg 99%

    23 August, Thursday

    Time Temperature Precipitation Wind Pressure Humidity
    00:00 +22°C° 0.6 mm 1 mps 717 mmHg 99%
    01:00 +22°C° 0.6 mm 1 mps 717 mmHg 99%
    02:00 +22°C° 0.6 mm 1 mps 716 mmHg 99%
    03:00 +22°C° 0.4 mm 1 mps 716 mmHg 99%
    04:00 +22°C° 0.4 mm 1 mps 716 mmHg 99%
    05:00 +22°C° 0.4 mm 1 mps 716 mmHg 99%
    06:00 +22°C° 0.2 mm 1 mps 717 mmHg 98%
    07:00 +23°C° 0.2 mm 1 mps 717 mmHg 97%
    08:00 +23°C° 0.2 mm 1 mps 718 mmHg 97%
    09:00 +24°C° 0.4 mm 1 mps 718 mmHg 95%
    10:00 +25°C° 0.4 mm 1 mps 717 mmHg 93%
    11:00 +25°C° 0.4 mm 1 mps 717 mmHg 91%
    12:00 +26°C° 0.6 mm 1 mps 717 mmHg 88%
    13:00 +27°C° 0.6 mm 2 mps 716 mmHg 85%
    14:00 +27°C° 0.6 mm 2 mps 715 mmHg 82%
    15:00 +26°C° 1 mm 2 mps 715 mmHg 87%
    16:00 +25°C° 1 mm 2 mps 715 mmHg 91%
    17:00 +24°C° 1 mm 2 mps 715 mmHg 96%
    18:00 +24°C° 0.2 mm 2 mps 716 mmHg 97%
    19:00 +23°C° 0.2 mm 1 mps 717 mmHg 98%
    20:00 +23°C° 0.2 mm 1 mps 717 mmHg 98%
    21:00 +22°C° 0.1 mm 1 mps 717 mmHg 99%
    22:00 +22°C° 0.1 mm 1 mps 717 mmHg 99%
    23:00 +22°C° 0.1 mm 1 mps 717 mmHg 99%

    24 August, Friday

    Time Temperature Precipitation Wind Pressure Humidity
    00:00 +22°C° 0.2 mm 1 mps 717 mmHg 99%
    01:00 +22°C° 0.2 mm 1 mps 716 mmHg 99%
    02:00 +22°C° 0.2 mm 1 mps 716 mmHg 99%
    03:00 +22°C° 0.9 mm 1 mps 716 mmHg 99%
    04:00 +22°C° 0.9 mm 1 mps 716 mmHg 99%
    05:00 +22°C° 0.9 mm 1 mps 716 mmHg 99%
    06:00 +23°C° 0.2 mm 1 mps 717 mmHg 98%
    07:00 +23°C° 0.2 mm 1 mps 717 mmHg 97%
    08:00 +23°C° 0.2 mm 2 mps 717 mmHg 96%
    09:00 +24°C° 0.2 mm 1 mps 717 mmHg 95%
    10:00 +24°C° 0.2 mm 1 mps 717 mmHg 94%
    11:00 +25°C° 0.2 mm 1 mps 717 mmHg 92%
    12:00 +25°C° 0.8 mm 1 mps 716 mmHg 90%
    13:00 +26°C° 0.8 mm 2 mps 716 mmHg 89%
    14:00 +27°C° 0.8 mm 2 mps 715 mmHg 87%
    15:00 +26°C° 2.5 mm 2 mps 715 mmHg 90%
    16:00 +25°C° 2.5 mm 2 mps 715 mmHg 94%
    17:00 +24°C° 2.5 mm 2 mps 715 mmHg 97%
    18:00 +23°C° 2.4 mm 2 mps 716 mmHg 97%
    19:00 +23°C° 2.4 mm 2 mps 716 mmHg 98%
    20:00 +23°C° 2.4 mm 2 mps 717 mmHg 98%
    21:00 +23°C° 0.8 mm 2 mps 717 mmHg 98%
    22:00 +23°C° 0.8 mm 2 mps 717 mmHg 99%
    23:00 +22°C° 0.8 mm 1 mps 717 mmHg 99%

    25 August, Saturday

    Time Temperature Precipitation Wind Pressure Humidity
    00:00 +22°C° 0.2 mm 1 mps 716 mmHg 99%
    01:00 +22°C° 0.2 mm 1 mps 716 mmHg 99%
    02:00 +22°C° 0.2 mm 1 mps 715 mmHg 99%
    03:00 +22°C° 0.3 mm 1 mps 716 mmHg 99%
    04:00 +22°C° 0.3 mm 1 mps 716 mmHg 99%
    05:00 +22°C° 0.3 mm 1 mps 716 mmHg 99%
    06:00 +22°C° 0.2 mm 1 mps 716 mmHg 98%
    07:00 +23°C° 0.2 mm 1 mps 717 mmHg 98%
    08:00 +23°C° 0.2 mm 1 mps 717 mmHg 98%
    09:00 +23°C° 0.4 mm 1 mps 717 mmHg 97%
    10:00 +24°C° 0.4 mm 2 mps 717 mmHg 97%
    11:00 +24°C° 0.4 mm 2 mps 717 mmHg 96%
    12:00 +24°C° 0.5 mm 2 mps 716 mmHg 96%
    13:00 +24°C° 0.5 mm 2 mps 716 mmHg 96%
    14:00 +24°C° 0.5 mm 2 mps 715 mmHg 97%
    15:00 +23°C° 0.5 mm 2 mps 715 mmHg 97%
    16:00 +23°C° 0.5 mm 1 mps 715 mmHg 97%
    17:00 +23°C° 0.5 mm 1 mps 715 mmHg 98%
    18:00 +23°C° 0.4 mm 1 mps 716 mmHg 98%
    19:00 +22°C° 0.4 mm 1 mps 716 mmHg 98%
    20:00 +22°C° 0.4 mm 1 mps 717 mmHg 99%
    21:00 +22°C° 0.8 mm 1 mps 717 mmHg 99%
    22:00 +22°C° 0.8 mm 1 mps 717 mmHg 99%
    23:00 +22°C° 0.8 mm 1 mps 717 mmHg 99%
    Show more